Location: Be Tobo
(6.6442°N, 10.6239°W)
Time: 01:16:37
(UTC+00:00)

Palapa 6 Rocket - Pass Details

Date: 18 September 2020
Orbit: 485 x 1217 km, 22.7° (Epoch: 21 October)

Event Time Altitude Azimuth Distance (km) Brightness Sun altitude
Rises 20:17:41 0° 250° (WSW) 2,532 7.3 -25.0°
Reaches altitude 10° 20:19:48 10° 252° (WSW) 1,674 6.2 -25.5°
Enters shadow 20:22:33 46° 267° (W) 687 3.6 -26.2°
